User: anonymous   Login
Location: Unspecified
(0.0000°N, 0.0000°E)
Time: 07:25:03
(UTC+00:00)
Language:

USA 271 - Orbit

View from above orbital plane
View from above orbital plane
View from above satellite
View from above satellite

Ground track
Ground track

The orbit data is extracted from the following two-line orbital elements,

1 41745U 16052B   17294.86070064 0.00000000  00000-0  00000-0 0    02
2 41745   0.0320 288.1223 0002000 284.5314  75.4686  1.00321878    09
Epoch (UTC): 21 October 2017 20:39:24
Eccentricity: 0.0002000
inclination: 0.0320°
perigee height: 35764 km
apogee height: 35780 km
right ascension of ascending node: 288.1223°
argument of perigee: 284.5314°
revolutions per day: 1.00321878
mean anomaly at epoch: 75.4686°
orbit number at epoch: 0

The dashed part of the orbit path shows where the satellite is in the earth's shadow,  

DLR